Location: Ravensburg
(48.5621°N, 13.4088°E)
Time: 18:05:54
(UTC+02:00)

ISS - Pass Details

Date: 27 March 2017
Orbit: 401 x 409 km, 51.6° (Epoch: 29 April)

Event Time Altitude Azimuth Distance (km) Brightness Sun altitude
Rises 21:36:14 0° 228° (SW) 2,312 0.2 -20.6°
Reaches altitude 10° 21:38:21 10° 221° (SW) 1,458 -0.9 -20.9°
Enters shadow 21:39:01 15° 217° (SW) 1,204 -1.4 -21.0°
